Kenosha, WI

5:02 PM CST on February 22, 2017 (GMT -0600)
Kenosha Regional

Weather History for KENW - March, 2013

Change the Weather History Date:

Monday, March 18, 2013

  Actual Average Record
Temperature  
Mean Temperature 26 °F -  
Max Temperature 34 °F 41 °F 80 °F (2012)
Min Temperature 19 °F 27 °F 8 °F (1965)
Degree Days  
Heating Degree Days 38    
Moisture  
Dew Point 24 °F    
Average Humidity 79    
Maximum Humidity 93    
Minimum Humidity 59    
Precipitation  
Precipitation 0.08 in - - ()
Sea Level Pressure  
Sea Level Pressure 29.74 in    
Wind  
Wind Speed 14 mph (SSE)    
Max Wind Speed 29 mph    
Max Gust Speed 43 mph    
Visibility 6 miles    
Events Fog , Snow    
Averages and records for this station are not official NWS values.
T = Trace of Precipitation, MM = Missing Value Source: NWS Daily Summary

Daily Weather History Graph

Daily Weather History Graph

Search for Another Location

Airport or City:

Trip Planner

Search our weather history database for the weather conditions in past years. The results will help you decide how hot, cold, wet, or windy it might be!

Date:

Astronomy

Mar. 18, 2013 Rise Set
Actual Time 6:58 AM CDT 7:01 PM CDT
Civil Twilight 6:29 AM CDT 7:30 PM CDT
Nautical Twilight 5:57 AM CDT 8:03 PM CDT
Astronomical Twilight 5:23 AM CDT 8:36 PM CDT
Moon 10:50 AM CDT (3/18) 1:08 AM CDT (3/18)
Length of Visible Light 13h 00m
Length of Day
12h 03m
Waxing Crescent, 41% of the Moon is Illuminated
Mar 18
Waxing Crescent
Mar 19
First Quarter
Mar 27
Full
Apr 2
Last Quarter
Apr 10
New

Hourly Weather History & Observations

Time (CDT) Temp. Windchill Dew Point Humidity Pressure Visibility Wind Dir Wind Speed Gust Speed Precip Events Conditions
12:53 AM 30.0 °F 20.0 °F 21.0 °F 69% 30.03 in 10.0 mi ESE 12.7 mph 19.6 mph N/A   Clear
1:53 AM 30.0 °F 19.1 °F 21.0 °F 69% 29.99 in 10.0 mi ESE 15.0 mph - N/A   Mostly Cloudy
2:06 AM 28.4 °F 17.0 °F 21.2 °F 74% 29.96 in 10.0 mi ESE 15.0 mph 21.9 mph N/A   Scattered Clouds
2:53 AM 28.9 °F 20.4 °F 21.9 °F 75% 29.96 in 10.0 mi ESE 9.2 mph - N/A   Scattered Clouds
3:00 AM 28.4 °F 18.5 °F 21.2 °F 74% 29.93 in 10.0 mi SE 11.5 mph - N/A   Mostly Cloudy
3:53 AM 28.9 °F 19.2 °F 21.9 °F 75% 29.92 in 10.0 mi ESE 11.5 mph 21.9 mph N/A   Mostly Cloudy
4:16 AM 30.2 °F 20.2 °F 23.0 °F 75% 29.89 in 10.0 mi ESE 12.7 mph 20.7 mph N/A   Overcast
4:53 AM 30.0 °F 20.0 °F 23.0 °F 75% 29.89 in 10.0 mi ESE 12.7 mph - N/A   Overcast
5:12 AM 30.2 °F 19.3 °F 23.0 °F 75% 29.84 in 10.0 mi East 15.0 mph - N/A   Overcast
5:38 AM 30.2 °F 18.9 °F 23.0 °F 75% 29.83 in 10.0 mi East 16.1 mph - N/A   Mostly Cloudy
5:53 AM 30.0 °F 17.5 °F 23.0 °F 75% 29.87 in 10.0 mi ESE 19.6 mph - N/A   Overcast
6:15 AM 30.2 °F 19.3 °F 24.8 °F 80% 29.83 in 10.0 mi East 15.0 mph - N/A   Overcast
6:53 AM 30.0 °F 18.7 °F 24.1 °F 79% 29.83 in 10.0 mi East 16.1 mph - N/A   Overcast
7:44 AM 30.2 °F 19.3 °F 24.8 °F 80% 29.78 in 2.0 mi East 15.0 mph - 0.00 in Snow Light Snow
7:53 AM 30.0 °F 20.0 °F 25.0 °F 82% 29.81 in 2.0 mi East 12.7 mph - 0.00 in Snow Light Snow
8:31 AM 30.2 °F 21.3 °F 26.6 °F 86% 29.75 in 2.0 mi East 10.4 mph - 0.01 in Snow Light Snow
8:45 AM 30.2 °F 21.3 °F 26.6 °F 86% 29.75 in 2.0 mi East 10.4 mph - 0.01 in Snow Light Snow
8:53 AM 30.0 °F 21.7 °F 27.0 °F 88% 29.79 in 2.0 mi East 9.2 mph - 0.01 in Snow Light Snow
9:53 AM 30.9 °F 22.2 °F 27.0 °F 85% 29.74 in 2.0 mi East 10.4 mph - 0.02 in Snow Light Snow
9:59 AM 30.2 °F 21.3 °F 28.4 °F 93% 29.71 in 0.8 mi East 10.4 mph - 0.00 in Snow Light Snow
10:53 AM 30.9 °F 22.2 °F 28.9 °F 92% 29.71 in 0.5 mi East 10.4 mph - 0.01 in Fog , Snow Light Snow
11:42 AM 32.0 °F 24.2 °F 28.4 °F 87% 29.67 in 1.0 mi SE 9.2 mph - 0.00 in Snow Light Snow
11:53 AM 32.0 °F 24.8 °F 28.9 °F 88% 29.69 in 1.0 mi SE 8.1 mph - 0.00 in Snow Light Snow
12:53 PM 32.0 °F 26.4 °F 28.9 °F 88% 29.65 in 1.2 mi SSE 5.8 mph - 0.01 in Snow Light Snow
1:50 PM 33.8 °F 28.6 °F 30.2 °F 87% 29.60 in 2.5 mi South 5.8 mph - 0.00 in Snow Light Snow
1:53 PM 33.1 °F 28.7 °F 30.0 °F 89% 29.62 in 2.5 mi SSE 4.6 mph - 0.00 in Snow Light Snow
2:53 PM 34.0 °F 28.8 °F 30.0 °F 85% 29.61 in 1.2 mi SW 5.8 mph - 0.01 in Snow Light Snow
3:02 PM 33.8 °F 29.6 °F 30.2 °F 87% 29.58 in 0.8 mi SW 4.6 mph - 0.00 in Snow Light Snow
3:53 PM 34.0 °F 25.5 °F 30.0 °F 85% 29.60 in 1.8 mi WSW 11.5 mph - 0.02 in Snow Light Snow
4:53 PM 33.1 °F 23.9 °F 30.0 °F 89% 29.60 in 1.8 mi WSW 12.7 mph - 0.00 in   Overcast
4:54 PM 33.8 °F 24.8 °F 30.2 °F 87% 29.57 in 4.0 mi WSW 12.7 mph - 0.00 in Snow Light Snow
4:57 PM 33.8 °F 25.3 °F 30.2 °F 87% 29.57 in 2.5 mi West 11.5 mph - 0.00 in Snow Light Snow
5:17 PM 33.8 °F 23.2 °F 28.4 °F 81% 29.58 in 4.0 mi West 17.3 mph 23.0 mph 0.00 in Snow Light Snow
5:53 PM 34.0 °F 24.6 °F 28.9 °F 82% 29.60 in 7.0 mi West 13.8 mph 21.9 mph 0.00 in   Overcast
6:28 PM 33.8 °F 22.5 °F 28.4 °F 81% 29.58 in 6.0 mi West 19.6 mph 23.0 mph N/A   Haze
6:53 PM 33.1 °F 23.0 °F 30.0 °F 89% 29.62 in 2.5 mi West 15.0 mph - N/A   Overcast
7:20 PM 32.0 °F 18.9 °F 28.4 °F 87% 29.61 in 4.0 mi West 24.2 mph 33.4 mph 0.00 in   Overcast
7:53 PM 28.9 °F 14.8 °F 23.0 °F 78% 29.66 in 7.0 mi West 24.2 mph 40.3 mph 0.00 in   Overcast
8:07 PM 28.4 °F 13.0 °F 19.4 °F 69% 29.65 in 9.0 mi West 28.8 mph 42.6 mph N/A   Overcast
8:53 PM 26.1 °F 10.4 °F 17.1 °F 69% 29.70 in 10.0 mi West 26.5 mph 35.7 mph N/A   Overcast
9:09 PM 26.6 °F 10.8 °F 17.6 °F 69% 29.67 in 10.0 mi West 27.6 mph 36.8 mph N/A   Overcast
9:42 PM 24.8 °F 9.3 °F 12.2 °F 59% 29.69 in 10.0 mi West 24.2 mph 40.3 mph N/A   Overcast
9:53 PM 23.0 °F 8.0 °F 12.9 °F 65% 29.72 in 10.0 mi West 20.7 mph 38.0 mph N/A   Overcast
10:53 PM 21.0 °F 4.6 °F 10.9 °F 65% 29.74 in 10.0 mi West 23.0 mph 32.2 mph N/A   Clear
11:51 PM 19.4 °F 2.1 °F 10.4 °F 68% 29.71 in 10.0 mi West 24.2 mph 32.2 mph N/A   Mostly Cloudy
11:53 PM 19.9 °F 3.2 °F 10.0 °F 65% 29.74 in 10.0 mi West 23.0 mph 32.2 mph N/A   Mostly Cloudy